Theta_e
329 328 329 328 329 329 330 331 330 330 331 332 331 330 326 322 320 318 319 321 324 328 329 328 335 337 337 334 336 334 334 330 331 332 331 330 331 320 315 314 318 319 316 315 313 315 318 320 322 323 324 325 326 325 323 320 317 317 321 323 324 320 315 315 315 318 322 323 321 319 318 318 319 318
326 325 325 325 324 326 327 328 329 330 329 329 329 330 330 329 323 320 317 319 325 327 332 335 334 338 338 334 334 333 333 325 331 333 332 331 332 319 315 314 315 317 315 313 310 311 314 318 322 324 324 324 324 323 320 318 317 320 324 324 324 322 317 317 318 321 322 321 320 317 317 318 318 319
324 323 323 322 322 322 323 324 326 328 329 327 328 329 330 329 327 324 322 318 325 331 327 334 336 335 334 334 334 332 333 330 330 332 332 332 325 319 317 314 314 315 315 313 312 316 317 315 317 321 323 324 324 322 322 322 321 323 324 320 319 321 318 317 318 321 323 322 321 319 318 319 318 319
322 321 320 320 320 320 321 322 323 324 326 329 330 330 329 329 330 328 323 320 319 327 331 334 334 334 333 332 331 333 334 333 323 332 332 331 322 325 325 314 313 313 314 313 315 319 320 318 319 321 322 324 325 324 324 323 322 322 318 316 316 317 316 316 317 321 323 323 321 320 318 319 318 318
320 319 318 318 318 320 320 320 321 321 322 325 329 331 329 326 328 328 325 321 320 326 333 329 329 332 332 329 334 334 334 335 332 327 332 330 328 328 329 325 313 312 312 311 311 312 314 317 323 322 322 324 323 320 320 319 315 318 317 313 312 312 314 314 314 317 321 321 320 318 318 318 317 316
319 319 317 317 318 319 318 318 318 318 319 320 323 325 328 326 323 328 326 323 322 320 328 329 330 331 330 327 334 333 331 331 330 328 330 332 332 330 330 329 320 311 312 310 310 310 312 312 317 317 314 315 316 315 314 314 312 315 313 309 311 314 316 317 314 313 319 320 319 317 317 316 315 316
317 317 317 317 317 318 317 317 317 318 318 319 319 320 323 324 326 326 328 325 322 321 321 324 325 328 328 327 327 332 333 333 333 329 328 329 330 331 331 330 326 311 310 309 310 309 310 311 312 314 313 313 313 312 311 311 310 310 310 307 310 312 313 313 312 311 318 321 318 316 316 314 315 316
316 315 315 315 315 315 314 314 315 316 317 317 317 317 320 322 324 327 328 326 322 323 322 325 324 324 324 326 331 332 332 329 327 329 329 330 328 327 327 328 327 317 309 309 310 310 310 311 311 312 312 312 312 311 311 310 309 309 309 308 308 309 309 309 308 308 312 319 319 318 315 314 316 318
316 314 313 313 314 313 312 312 313 314 315 316 316 316 317 319 322 324 325 325 324 323 322 322 325 326 326 327 330 330 328 329 326 328 328 327 328 327 327 327 327 316 309 310 310 309 309 310 310 311 311 311 311 311 310 309 309 307 308 308 308 308 307 307 307 307 309 311 312 319 318 314 317 320
316 314 313 312 312 311 310 310 311 313 314 315 315 316 316 317 320 321 322 320 319 319 318 319 318 320 320 321 323 326 327 322 322 324 328 328 328 327 326 326 326 325 317 314 313 310 309 309 310 310 311 311 310 310 309 309 308 308 307 307 307 307 306 306 306 306 307 308 308 311 313 313 317 320
316 315 313 312 311 310 310 310 310 311 313 313 314 315 315 316 318 318 318 316 315 314 312 313 314 313 315 316 314 320 324 326 325 321 320 322 326 326 325 324 326 325 320 314 311 313 313 312 313 310 310 310 310 310 309 309 308 307 307 306 306 306 306 306 305 306 306 306 306 307 307 310 317 320
316 315 313 312 311 310 309 310 309 309 311 312 312 313 315 315 315 315 315 314 312 310 309 308 309 310 311 311 314 316 317 316 318 320 318 316 320 323 325 325 323 324 321 317 315 312 312 311 311 310 309 310 309 309 309 309 310 309 307 306 305 305 305 305 305 306 306 306 306 305 305 305 309 317
314 314 314 312 311 311 309 305 305 304 304 308 308 309 311 313 313 314 314 313 311 309 308 307 307 307 306 307 308 308 309 310 312 318 320 320 322 323 323 324 327 324 319 318 315 314 314 315 314 315 315 316 313 313 311 312 310 309 306 306 305 305 304 305 305 305 306 305 305 304 304 304 305 308
312 312 314 313 309 309 308 304 301 299 300 302 304 305 307 308 310 311 311 310 310 309 306 305 305 304 303 303 305 306 307 310 313 316 318 316 318 320 320 321 323 322 319 315 313 314 315 315 315 316 316 319 316 319 315 318 315 310 305 305 305 305 304 304 304 305 305 304 304 304 303 303 303 303
310 310 311 312 311 309 309 309 299 299 298 297 298 298 299 301 305 307 308 308 308 307 305 304 304 303 303 303 304 304 305 308 310 313 315 317 317 316 316 315 319 321 319 316 314 313 315 316 314 314 316 319 317 320 318 311 309 308 305 305 305 305 304 304 304 304 304 303 303 302 302 302 302 302
308 308 308 309 310 309 308 310 312 306 299 298 298 297 297 297 296 296 304 306 306 306 305 303 302 303 303 304 305 304 304 305 310 312 314 313 315 314 315 316 315 319 319 316 313 312 315 316 315 315 316 319 319 319 315 308 308 307 306 305 304 304 304 303 304 303 303 302 302 301 300 300 301 300
307 307 307 307 307 308 307 308 307 310 311 302 300 300 301 300 298 294 294 297 306 307 305 304 302 302 303 303 304 306 305 308 309 310 310 310 312 314 314 316 318 318 319 317 314 313 315 314 313 315 316 319 320 319 311 308 307 306 305 305 304 304 303 303 303 303 302 301 301 300 300 299 299 299
307 306 306 305 305 306 307 306 304 308 311 311 311 310 309 308 305 300 298 298 298 302 306 305 303 304 305 303 304 307 307 307 307 308 307 309 311 312 313 316 318 319 320 316 316 313 314 314 314 314 316 318 320 320 315 307 306 305 305 304 303 303 303 303 303 302 302 301 300 299 299 298 298 298
305 306 306 305 304 305 305 303 298 305 309 310 310 309 308 308 307 308 308 307 308 307 307 306 306 306 306 306 306 306 307 308 309 310 309 310 312 314 318 317 318 316 316 316 316 311 311 312 312 302 303 307 309 308 305 305 305 304 304 303 303 303 303 302 302 302 302 301 300 299 298 297 296 297
304 305 305 305 304 304 303 297 292 295 306 309 308 307 307 307 307 308 304 299 301 307 309 309 308 308 308 299 306 305 305 306 308 309 311 310 310 310 309 309 312 305 308 308 310 307 303 304 303 299 301 302 301 303 305 300 303 305 304 303 302 302 302 302 301 301 301 299 299 299 297 297 296 297
302 302 302 303 303 303 301 294 291 291 298 307 307 307 306 306 306 305 308 300 296 296 296 296 295 295 295 296 296 296 296 301 305 307 304 303 306 305 303 304 307 306 306 305 307 305 300 301 300 298 298 298 298 299 300 303 300 301 302 302 302 302 301 301 301 301 300 299 299 298 297 297 296 297
303 301 297 299 301 301 299 291 291 290 302 305 305 306 305 304 303 304 306 308 307 298 299 298 298 297 296 297 297 296 296 298 302 304 300 302 303 302 302 300 302 307 307 305 306 304 301 301 303 300 300 298 298 298 299 300 301 300 300 300 300 301 301 301 301 301 300 299 299 298 297 296 298 304
303 302 300 296 294 296 294 289 290 291 298 305 305 305 304 303 303 303 305 305 305 306 306 307 307 306 304 307 307 306 298 299 303 305 304 303 302 299 300 300 301 302 303 304 305 302 301 302 304 304 300 295 297 298 298 298 299 300 301 301 301 299 299 300 300 300 299 298 298 297 297 298 300 303
302 302 302 299 291 289 290 290 289 291 291 303 304 304 303 303 301 305 305 304 305 305 304 305 306 306 306 307 307 307 307 306 307 305 305 304 302 300 299 299 299 298 299 302 303 303 303 304 303 303 304 297 292 295 297 297 298 299 299 298 298 298 298 298 298 298 298 298 297 298 298 298 300 301
301 300 300 301 293 289 290 290 290 290 291 293 303 302 302 302 300 300 306 305 301 305 305 305 305 305 305 306 306 305 305 304 305 305 305 305 304 301 299 298 298 298 299 302 300 306 302 304 303 302 298 297 295 294 295 296 297 298 299 299 297 298 298 298 298 298 296 296 296 297 297 297 298 299
301 300 299 299 294 289 290 290 290 290 291 293 302 300 291 291 292 304 305 305 305 304 303 303 302 303 303 304 304 304 304 304 304 305 305 305 304 303 302 300 298 296 297 304 300 305 304 301 301 300 298 296 294 295 293 293 295 296 298 298 298 299 299 298 299 299 299 299 299 297 297 296 297 297
300 300 300 299 293 290 290 290 290 291 291 296 298 290 291 292 293 298 304 304 304 302 302 302 301 301 302 302 302 302 303 304 305 304 304 305 304 303 303 302 302 301 303 304 305 306 305 301 302 301 298 296 294 294 294 292 292 296 295 296 296 297 298 297 296 296 297 296 296 295 294 294 294 294
299 299 300 297 290 291 291 291 291 292 292 297 291 291 292 294 296 303 303 303 303 301 300 300 300 301 301 302 301 302 304 303 304 305 305 305 304 303 303 302 301 301 302 303 303 303 302 300 299 300 300 298 294 292 290 294 294 295 293 295 296 296 297 297 297 297 297 298 297 297 297 296 297 296
299 294 290 290 291 291 292 292 294 294 294 291 292 292 293 298 301 301 301 301 302 300 299 299 300 301 302 302 303 305 305 305 305 305 305 306 305 305 304 302 300 299 299 300 301 300 300 298 296 296 295 296 294 292 291 288 291 292 294 294 293 295 297 298 297 297 297 298 297 296 296 296 296 297
291 291 293 292 293 294 296 301 300 300 300 293 293 293 296 302 300 299 300 300 299 299 299 299 299 300 302 302 304 305 305 304 302 303 303 303 302 303 301 300 298 298 298 298 297 297 297 297 296 294 292 292 292 290 290 289 287 289 291 292 293 294 296 296 296 296 296 296 297 297 298 299 299 299
300 298 298 297 294 295 292 294 294 295 295 299 300 301 301 301 299 299 298 299 299 298 299 299 300 301 302 304 303 302 302 302 302 303 302 302 301 301 300 298 296 296 296 297 296 296 295 295 295 294 290 288 289 288 289 289 287 287 289 292 292 288 293 296 296 296 296 297 297 298 299 299 300 299
302 302 296 297 300 301 301 301 302 301 301 299 298 300 300 299 299 297 296 296 299 299 300 301 301 301 301 301 301 302 301 301 302 303 302 301 301 300 300 297 295 295 294 295 295 296 295 295 294 293 292 291 288 289 291 290 288 289 289 292 293 294 294 294 295 296 297 297 296 296 297 298 298 298
302 301 299 300 297 299 298 296 299 299 299 298 299 300 300 300 299 299 299 298 297 297 298 298 298 300 300 300 301 300 300 301 301 302 302 302 301 300 300 297 295 294 292 293 294 295 297 297 296 295 294 293 294 294 292 289 292 293 292 293 294 294 295 296 296 296 297 296 294 295 295 297 298 298
297 296 296 296 296 297 296 296 296 296 297 297 297 298 294 298 298 298 298 297 297 297 295 297 297 298 297 299 299 300 299 301 301 301 297 301 301 299 298 297 296 296 294 295 295 295 297 297 298 297 296 295 295 294 295 294 292 294 295 295 295 294 295 296 297 297 297 296 295 293 293 294 296 299
294 294 293 293 294 294 296 294 295 295 295 295 296 296 298 298 297 296 297 298 295 295 295 295 295 296 297 297 297 298 298 299 300 300 300 301 301 299 298 297 296 297 297 296 297 298 298 297 298 297 296 296 295 296 295 295 295 294 295 296 297 295 295 297 296 297 297 296 296 292 292 293 295 298
294 295 294 293 293 293 293 292 293 294 295 295 296 296 294 295 296 297 296 297 298 295 296 294 294 295 296 295 295 297 296 296 298 299 298 299 298 298 298 297 296 296 297 297 297 299 299 298 298 295 291 290 289 288 290 294 293 297 295 293 297 296 296 297 297 297 296 295 295 293 288 290 293 295
293 294 295 294 295 294 292 293 293 293 294 294 294 295 296 295 296 297 299 298 298 295 295 295 294 295 295 295 294 294 295 295 296 296 297 298 298 298 296 295 295 297 297 297 299 298 299 299 299 296 294 291 290 288 288 294 292 292 296 295 293 297 296 296 296 295 296 296 295 292 289 290 291 294
294 295 295 295 295 294 294 293 292 292 293 292 293 293 294 296 297 297 298 298 297 296 295 294 294 294 295 294 295 294 294 295 296 294 295 297 296 296 296 296 296 297 297 298 298 297 298 298 297 297 296 292 291 290 290 293 293 293 291 297 293 294 298 296 293 293 293 295 293 292 291 291 293 295
295 294 294 295 295 295 294 293 292 293 293 293 291 292 292 293 294 294 294 295 297 296 296 295 295 294 293 295 294 294 293 293 294 294 294 294 296 296 296 296 296 297 297 296 298 299 298 297 297 297 296 294 292 292 294 292 291 293 291 290 297 295 295 294 294 295 294 292 293 295 294 293 292 289
295 295 295 295 295 295 295 296 294 294 293 293 291 292 291 289 290 291 291 292 293 293 294 294 294 294 294 295 294 295 294 294 293 294 294 294 293 294 294 295 295 295 294 295 295 296 294 294 295 297 296 296 295 294 294 293 294 294 294 293 288 292 294 294 294 293 293 295 294 290 289 291 289 292
294 294 294 295 295 295 295 295 294 295 294 294 293 290 291 291 289 289 289 290 290 293 294 295 294 293 294 294 294 294 293 293 293 293 293 293 292 292 292 291 293 294 294 293 295 294 294 295 295 285 294 296 295 298 293 291 290 291 292 293 291 289 289 291 298 296 293 295 294 291 289 289 289 290
296 295 295 296 295 295 295 295 295 294 294 293 292 292 292 290 289 287 289 288 290 290 293 294 294 294 294 294 294 293 293 293 292 292 292 292 293 292 291 292 293 293 292 292 293 294 298 300 298 300 299 295 294 292 289 289 289 291 291 293 294 291 290 289 289 292 298 297 293 292 291 291 292 290
296 296 295 296 295 295 295 296 295 294 294 293 293 292 291 291 291 290 290 289 289 289 291 292 293 294 294 295 294 294 294 293 293 292 292 292 292 292 292 292 292 293 293 292 294 294 294 298 298 294 293 293 292 291 289 289 290 290 291 292 293 294 293 291 290 288 287 286 288 291 294 292 291 288
297 297 296 296 296 296 295 295 295 295 295 292 293 292 291 291 290 290 290 290 289 289 289 289 291 292 293 294 294 294 294 294 294 293 292 292 292 292 292 292 292 292 293 293 293 293 293 294 293 294 292 291 292 291 289 290 290 290 291 291 291 292 293 294 293 291 290 288 286 287 287 287 288 288
298 298 297 297 295 295 294 295 292 294 294 293 292 292 291 291 290 290 290 290 289 289 289 288 288 289 291 293 294 293 293 292 293 293 293 293 293 292 292 292 292 291 292 292 292 292 293 293 294 294 292 292 291 291 290 290 289 289 289 289 289 291 292 293 293 293 293 294 288 285 287 287 288 288
Wind_Speed
12 11 13 12 11 10 10 9 9 9 9 8 7 6 7 8 9 8 9 9 8 3 9 10 7 10 10 12 10 10 10 12 12 8 11 12 10 16 20 19 19 19 19 19 19 18 17 16 17 17 16 20 20 18 18 19 18 18 16 18 17 14 15 15 16 18 20 21 19 18 17 15 13 13
10 11 10 11 10 11 11 11 11 9 8 8 8 7 5 5 8 9 9 11 8 6 6 6 6 5 7 8 8 11 12 13 13 12 10 11 12 19 23 21 20 20 19 19 18 18 18 18 18 18 17 18 16 16 16 17 18 17 17 19 18 15 15 16 17 18 19 19 18 18 17 16 16 15
10 12 12 12 11 11 11 11 11 11 9 9 9 8 7 6 6 7 8 10 7 4 6 5 6 5 7 7 8 9 10 11 14 15 13 12 14 13 18 23 22 20 21 19 18 16 18 18 18 18 19 20 19 18 18 15 15 18 19 19 18 15 17 18 19 20 19 18 17 19 18 18 15 16
10 12 13 13 12 12 12 11 10 11 11 11 9 8 8 8 6 6 7 9 12 9 8 5 4 7 6 7 10 10 9 8 15 13 11 12 13 12 10 20 21 22 22 21 19 19 19 18 18 19 19 21 21 19 20 18 20 20 20 20 18 15 17 18 19 20 20 18 18 18 19 16 16 17
12 12 13 14 15 15 13 11 11 11 12 12 10 8 8 8 7 7 8 9 11 9 3 5 5 4 6 7 6 7 7 7 9 13 12 12 12 11 10 10 20 22 20 19 19 19 19 19 18 18 19 20 20 19 20 19 20 21 21 20 18 16 17 17 18 18 19 18 18 19 18 15 17 18
12 13 14 16 16 15 15 14 13 12 11 12 11 11 10 9 8 8 9 9 8 9 5 3 3 4 3 4 4 7 9 8 7 10 11 11 12 12 11 9 11 21 20 19 19 19 19 18 19 19 19 19 20 21 20 20 21 21 21 21 19 17 19 19 19 18 18 19 18 18 16 16 18 19
14 13 14 15 15 13 15 15 14 14 14 11 11 12 11 11 9 8 7 8 7 6 5 3 4 3 3 3 4 4 5 7 7 7 11 10 9 10 11 9 8 18 21 21 20 19 19 19 19 19 19 19 20 20 20 20 21 22 21 21 20 18 20 21 20 19 19 20 18 18 17 16 18 19
13 13 13 14 15 15 15 15 14 15 15 14 13 13 11 11 12 8 7 8 8 6 6 4 5 4 4 5 5 5 5 7 9 7 8 9 10 9 9 9 8 12 20 21 21 19 19 20 20 20 20 20 20 21 22 22 23 24 22 21 20 18 19 21 20 19 18 19 20 17 17 17 17 19
13 12 13 14 14 15 15 15 15 15 18 15 14 14 12 12 12 11 10 10 9 9 9 8 6 6 6 6 5 4 6 4 6 8 10 9 10 10 10 10 10 11 19 20 21 22 20 19 21 21 21 21 20 21 20 20 18 15 18 20 20 19 19 20 20 19 18 18 18 18 17 18 18 21
12 12 13 13 14 15 16 15 15 15 17 16 16 16 14 14 12 12 12 13 14 13 12 12 11 11 11 9 8 10 8 8 7 7 5 4 6 6 7 8 9 8 9 10 13 15 17 21 20 21 21 21 21 20 20 21 19 22 20 19 20 20 19 19 19 19 18 18 18 18 19 19 19 21
12 13 12 13 14 15 15 16 16 15 16 14 16 16 15 15 13 12 12 13 13 13 13 12 12 10 10 8 10 10 9 6 5 8 9 6 4 5 7 6 7 7 8 13 19 17 15 17 17 18 19 20 20 20 20 21 22 22 23 22 20 20 19 20 19 19 19 19 19 18 18 19 20 22
13 13 12 13 13 14 14 15 15 16 13 12 13 14 15 14 14 13 12 12 12 12 11 12 12 11 11 12 11 11 12 12 9 8 8 9 7 6 7 9 9 8 8 8 9 13 15 17 19 19 21 22 21 22 22 23 23 24 22 19 20 19 19 19 20 19 20 20 20 19 19 18 19 20
13 13 12 12 12 10 8 12 12 15 15 13 13 14 13 14 15 13 12 12 12 11 11 11 10 10 12 12 13 13 13 12 11 10 10 7 7 6 7 9 11 9 10 9 10 8 10 7 7 10 11 13 20 19 21 21 25 24 23 25 22 20 19 20 21 20 21 21 21 20 20 19 18 18
13 14 12 12 13 11 5 7 10 9 12 17 17 16 16 14 13 14 13 12 12 12 12 13 13 13 11 10 11 11 11 9 10 11 8 8 9 7 6 3 3 2 5 8 10 7 9 12 7 9 10 10 16 13 14 12 16 21 23 23 22 21 21 21 22 21 21 21 21 21 21 20 19 17
11 12 13 12 13 13 12 5 9 10 9 9 13 16 17 17 16 13 13 13 13 12 12 11 12 13 13 13 12 10 10 10 10 9 8 7 7 8 7 7 2 5 7 4 4 4 9 10 10 13 12 13 11 13 14 17 19 21 23 23 24 24 22 23 22 22 21 21 20 19 20 20 19 17
11 11 11 11 10 12 14 12 6 8 8 8 9 13 16 15 14 13 13 12 12 14 13 13 13 13 14 14 14 14 14 14 12 10 8 7 7 7 7 6 6 1 6 5 6 9 6 9 10 12 13 12 13 16 16 22 21 23 25 25 24 22 22 22 23 22 23 22 22 21 19 19 18 17
12 11 11 11 11 10 15 12 13 10 6 6 8 10 13 15 13 11 11 11 12 12 13 13 14 14 14 15 15 15 15 14 12 12 11 9 8 7 6 6 6 0 7 5 5 5 5 10 9 10 12 12 12 15 17 24 23 24 24 25 24 25 25 25 24 23 23 22 21 21 19 17 18 17
12 12 12 12 12 12 13 13 15 12 10 10 10 11 12 13 15 16 15 14 14 15 13 13 13 14 14 14 15 16 15 14 13 12 12 11 10 9 9 8 6 4 6 8 5 4 4 8 9 9 8 9 11 10 12 21 21 21 21 22 22 22 22 22 23 24 25 24 22 20 19 18 17 16
13 12 12 13 13 13 14 13 16 14 10 10 9 11 11 12 10 11 12 13 14 13 13 14 14 13 13 13 15 16 15 14 13 11 11 11 11 10 8 6 8 9 10 9 5 4 3 2 4 7 9 8 2 3 5 14 17 19 22 22 22 22 23 24 23 21 19 20 21 20 19 18 17 16
13 12 12 12 13 14 14 18 21 18 12 11 10 11 12 12 11 8 4 6 3 5 8 9 9 9 5 4 8 10 13 16 14 12 9 10 11 11 10 10 7 8 7 13 9 5 6 7 5 7 7 7 8 7 5 8 8 19 21 21 21 23 23 22 21 23 22 16 14 14 14 15 16 15
14 13 14 12 12 13 14 17 19 21 16 12 11 11 11 11 12 13 5 7 6 3 3 4 7 7 5 4 7 11 12 13 15 13 14 16 14 13 12 11 9 8 9 11 11 4 4 5 5 7 7 7 8 9 8 5 7 4 10 16 22 24 21 22 22 21 19 19 19 17 15 14 13 14
12 14 18 16 12 12 13 18 19 22 15 12 12 12 11 12 13 13 12 10 7 5 3 3 0 7 9 9 10 9 11 14 17 17 16 15 13 12 12 11 10 4 9 12 13 5 3 4 3 6 4 7 7 8 7 7 9 10 6 6 6 13 21 22 23 23 24 23 19 17 16 16 14 9
9 11 12 15 14 12 13 16 17 19 17 11 12 12 11 12 13 13 13 13 13 13 13 13 14 13 15 15 15 14 14 16 19 17 15 14 14 13 12 12 12 7 7 11 16 7 1 2 2 2 2 5 5 7 8 9 10 9 7 9 9 9 5 13 18 19 19 19 19 19 18 16 13 9
9 10 10 11 15 15 15 15 16 16 18 12 12 11 11 12 11 12 12 12 12 13 13 13 14 14 14 14 14 16 17 17 17 16 16 15 15 14 12 11 11 8 8 10 14 8 2 3 3 5 3 3 3 5 7 9 10 9 8 10 10 15 15 11 13 19 20 21 22 21 20 19 15 9
9 9 10 9 12 13 13 15 16 15 16 14 12 12 11 9 11 11 10 11 12 12 13 14 14 13 14 14 14 15 14 14 15 15 14 15 15 14 14 14 14 11 11 12 17 8 5 3 4 4 6 4 4 5 6 8 10 11 10 7 8 9 12 10 9 10 14 17 17 18 16 15 18 16
8 9 9 8 10 11 11 12 14 15 14 14 12 12 13 14 14 9 10 10 11 11 12 14 14 14 14 14 14 14 14 15 14 14 14 14 13 14 14 14 14 12 13 14 18 10 7 5 5 3 2 1 7 6 6 8 9 9 10 9 9 9 10 11 12 11 9 8 9 13 15 16 13 16
8 8 9 8 10 10 10 10 11 13 14 13 11 14 14 13 13 10 10 10 11 11 12 13 14 14 14 13 13 14 14 15 14 13 14 14 13 13 13 14 14 13 11 12 14 11 9 6 7 5 6 3 8 9 9 7 7 7 12 11 12 10 10 12 12 10 10 11 12 22 21 21 20 17
8 9 8 7 10 10 10 8 8 12 12 10 13 14 14 13 12 11 11 11 11 11 12 14 13 14 13 13 13 14 14 14 13 14 14 15 14 14 13 16 16 16 16 16 16 15 11 8 9 8 7 6 6 10 12 9 8 7 12 10 12 11 10 12 12 11 10 10 10 9 12 12 12 14
8 5 6 8 8 10 9 8 10 11 11 12 11 13 14 14 12 12 12 12 11 12 13 14 13 13 13 13 13 13 14 14 14 14 13 13 14 14 14 14 15 15 14 15 16 16 15 13 10 10 12 9 8 9 10 10 6 7 6 12 12 9 9 9 11 11 10 10 10 10 10 10 10 11
5 5 3 7 7 10 10 10 11 11 10 9 8 11 14 13 13 13 12 12 12 12 12 13 13 13 12 12 13 13 13 14 14 14 14 13 14 14 13 13 14 15 16 17 17 17 17 15 13 10 12 13 10 11 9 12 13 11 11 12 13 13 11 11 12 12 13 12 11 10 9 9 9 8
6 7 6 4 4 4 2 6 8 11 11 11 11 11 11 11 12 12 13 12 12 12 11 12 12 12 12 11 12 12 13 13 13 13 13 13 14 14 13 13 14 14 15 17 18 18 18 17 16 15 14 13 15 14 11 12 13 11 13 11 10 10 9 10 10 10 10 10 9 9 9 9 9 8
4 4 1 0 6 7 8 8 9 9 10 11 11 11 11 11 11 12 13 13 12 12 11 11 11 11 12 11 11 12 13 13 13 13 13 13 13 14 14 15 14 13 13 14 16 17 19 18 16 15 14 13 13 10 9 12 12 11 11 9 10 10 8 9 10 9 9 9 10 9 8 7 8 7
3 4 5 6 6 7 8 6 9 9 9 9 10 12 11 11 11 11 12 13 13 12 12 12 11 11 11 12 11 11 12 12 12 13 13 13 13 13 14 15 13 13 14 13 11 12 11 12 13 14 14 14 12 11 10 11 11 10 9 9 9 10 9 8 8 9 9 9 9 9 9 7 6 6
3 4 4 6 6 7 7 7 6 7 8 8 8 9 10 10 11 11 11 11 11 11 11 11 10 11 10 11 12 12 12 12 12 12 12 12 12 13 14 14 15 13 12 11 10 9 8 7 8 10 11 12 13 14 11 10 10 10 9 8 9 9 8 8 8 8 8 8 8 8 8 8 6 6
3 4 4 5 4 5 7 5 6 5 6 6 6 8 8 9 10 9 10 10 9 8 9 10 9 9 10 10 11 11 12 12 12 11 11 11 11 12 13 13 13 13 13 12 10 9 9 8 7 6 7 7 9 11 16 13 9 10 8 9 7 9 8 7 8 8 8 8 8 9 7 7 7 6
4 4 4 5 4 6 6 5 7 7 7 6 7 5 6 7 9 8 8 8 10 8 9 9 9 9 9 9 9 10 10 9 11 11 10 10 10 10 11 12 11 12 12 12 12 11 9 8 7 8 8 7 7 8 9 15 14 8 9 9 8 8 7 7 7 7 7 7 6 7 7 8 7 6
4 4 6 6 7 6 5 7 7 7 7 7 7 7 6 6 8 8 8 7 9 8 8 8 8 8 8 8 7 8 8 9 8 9 9 10 10 10 9 10 10 10 11 11 10 10 9 9 9 8 7 7 9 8 7 6 10 12 8 8 6 6 6 7 7 7 6 7 6 6 6 7 7 7
4 5 6 6 6 6 6 6 6 5 7 7 7 7 7 7 7 8 8 8 7 6 7 7 7 8 8 7 8 8 9 8 7 8 8 9 8 8 7 7 7 9 9 10 9 9 9 9 9 9 8 7 7 7 6 4 4 7 10 6 5 5 4 5 6 6 8 8 7 6 4 5 6 5
6 5 5 6 5 6 6 6 6 6 7 6 6 6 7 7 7 7 6 7 7 6 6 7 7 6 8 7 7 8 8 9 8 8 8 8 9 7 7 6 6 7 8 8 8 8 9 9 9 9 9 7 7 6 5 5 5 3 6 9 5 3 3 3 5 6 7 8 8 7 5 5 7 8
5 5 5 5 5 5 5 5 6 6 6 6 6 6 6 5 5 5 5 5 5 5 5 5 6 6 6 7 7 7 7 9 8 7 7 7 8 7 6 6 6 6 6 7 6 9 9 9 9 8 8 8 6 5 5 5 4 3 4 8 10 6 3 1 3 4 5 7 8 6 6 5 4 4
5 5 5 5 5 5 5 5 5 5 5 5 5 6 6 6 6 4 5 5 4 5 4 4 5 5 5 5 6 6 7 7 7 7 7 6 6 6 7 7 6 6 6 6 7 7 9 7 5 6 4 4 3 7 4 4 4 3 4 4 8 8 8 8 4 3 5 7 7 6 7 6 5 4
4 5 4 5 5 4 5 5 5 5 5 5 4 3 5 3 4 5 2 4 4 4 4 4 4 5 5 5 5 5 6 6 6 7 6 7 6 5 6 7 6 6 6 6 5 6 5 4 5 4 1 0 3 3 5 3 4 4 3 3 4 7 9 9 11 9 5 5 5 5 5 4 3 3
3 4 4 4 4 4 4 4 4 5 5 5 3 4 3 3 3 4 4 4 4 4 5 4 4 4 4 4 4 5 5 5 5 5 5 5 6 6 5 5 6 5 4 4 5 3 3 4 3 2 2 3 4 3 4 4 3 3 3 3 3 3 4 7 9 10 11 11 9 4 2 0 2 2
2 2 3 3 3 3 3 4 4 4 4 3 3 3 3 3 3 4 4 4 4 4 4 4 4 4 4 4 4 4 4 4 4 4 4 4 4 5 5 4 4 5 4 3 3 3 2 2 3 3 3 3 3 3 2 1 3 3 4 4 2 2 3 3 4 6 7 9 9 7 8 8 5 4
1 1 2 2 2 1 2 2 2 3 2 2 2 3 3 3 3 3 3 3 4 3 3 4 4 4 4 4 3 4 4 5 4 4 4 4 4 3 4 4 3 3 4 5 3 3 2 2 2 2 2 2 2 3 3 3 3 3 3 3 3 3 3 3 4 4 4 4 6 7 7 7 8 7
Wind_Direction
359 356 356 352 347 348 338 335 334 330 327 324 316 316 319 308 294 296 288 282 281 298 269 262 227 217 209 213 207 203 205 209 202 188 197 196 198 185 202 205 201 200 202 203 204 201 196 195 187 190 197 194 196 194 184 180 178 176 176 183 196 196 186 186 186 187 187 188 181 174 178 171 170 172
1 359 1 358 351 348 341 336 335 334 331 330 328 327 320 319 315 305 296 296 290 287 260 241 254 198 211 205 209 211 213 206 200 205 195 197 204 181 195 201 202 200 200 202 202 200 196 195 192 189 190 192 196 199 183 180 178 177 179 185 197 195 183 180 182 188 190 192 177 172 172 176 182 176
2 1 3 2 356 351 344 338 338 337 336 335 331 332 327 326 319 316 311 302 304 274 269 251 222 210 211 198 204 211 215 202 194 208 206 203 209 197 194 198 199 199 200 200 199 198 196 196 193 191 189 190 194 197 191 182 178 181 182 186 197 192 182 178 181 189 193 195 176 172 176 188 178 160
8 6 9 7 1 355 348 347 342 341 339 336 335 336 332 327 332 327 314 309 305 301 282 280 229 208 215 211 225 221 223 200 186 208 207 205 206 206 201 201 201 203 198 197 197 196 193 195 194 192 191 192 195 196 195 184 181 182 184 188 193 186 181 177 181 189 193 192 178 176 188 187 174 163
18 15 13 10 8 5 2 358 352 350 344 336 336 340 336 332 338 336 331 324 321 325 356 334 325 286 228 218 208 222 215 215 193 206 211 201 203 207 208 201 203 201 203 201 196 195 193 193 192 189 189 190 192 192 196 190 185 184 184 188 189 182 181 179 183 189 192 187 181 183 192 178 175 165
20 19 16 15 12 9 10 7 5 357 350 345 343 344 339 340 342 340 342 339 336 337 1 358 3 335 321 278 210 231 232 225 208 203 211 207 200 204 209 200 201 201 196 198 203 198 192 190 193 190 189 189 190 190 192 189 188 187 185 187 188 183 183 184 186 191 192 187 184 184 180 176 172 167
25 22 20 17 12 6 10 10 8 5 360 355 355 350 346 341 343 342 341 340 332 328 341 353 330 338 332 295 303 275 267 255 225 202 209 207 205 205 205 203 195 196 201 196 200 201 193 188 192 191 190 189 191 190 190 190 189 188 185 187 189 185 186 185 188 192 196 186 177 176 173 171 172 168
26 23 21 18 14 11 12 10 8 7 3 2 359 356 356 349 341 338 348 353 341 344 340 8 349 343 316 320 297 301 277 269 259 228 205 202 199 203 207 211 207 190 199 198 197 198 200 192 191 192 189 191 191 190 193 191 189 190 184 185 187 186 186 186 185 191 197 183 176 169 168 169 173 172
33 29 25 20 18 18 17 13 12 6 8 8 7 5 4 357 355 1 3 359 2 358 3 359 354 340 337 323 318 320 308 283 281 255 229 206 201 200 202 208 213 192 192 202 200 196 194 196 194 193 192 191 190 190 189 197 197 186 188 185 185 186 186 186 184 185 185 176 174 170 165 170 174 177
40 36 33 28 26 25 25 19 13 12 14 15 15 13 12 10 8 13 18 23 23 19 19 18 14 13 6 354 357 360 337 325 310 305 293 274 231 210 202 206 206 203 188 200 207 205 199 197 199 197 192 190 189 188 188 189 182 189 191 190 188 186 185 186 183 179 175 171 171 171 169 170 175 178
38 41 37 37 35 32 30 27 20 17 22 23 22 23 20 19 16 24 28 29 30 29 25 22 22 12 10 8 4 354 352 334 322 310 308 289 250 232 231 214 207 203 191 200 197 197 197 195 196 195 195 192 189 188 188 188 186 189 193 193 192 188 184 183 183 177 172 169 170 170 170 172 177 179
38 42 41 36 37 40 38 31 29 22 17 16 24 22 28 27 24 25 26 28 32 32 30 26 16 14 3 6 3 0 8 9 3 359 325 300 289 259 230 223 210 203 189 183 195 207 206 201 194 193 196 194 191 191 191 190 190 192 192 191 192 191 184 181 181 179 174 171 172 171 171 176 180 182
39 41 46 38 28 26 38 44 40 39 31 25 23 16 13 22 29 30 28 29 31 32 30 26 22 15 15 9 2 3 7 1 346 324 332 318 305 284 263 238 220 202 196 200 189 181 177 175 190 185 192 200 195 195 192 193 192 193 189 192 187 190 188 183 181 181 176 173 174 173 174 178 182 184
39 39 36 42 32 14 44 63 58 49 42 47 46 36 31 21 21 28 32 30 29 30 29 26 19 19 15 4 1 355 345 333 330 334 332 330 332 315 275 268 257 188 203 191 190 188 181 191 167 184 199 191 194 197 197 196 194 193 189 192 192 189 186 182 182 181 179 176 176 175 175 178 181 184
35 32 29 27 31 24 14 87 90 69 67 59 53 49 44 39 35 24 25 33 31 29 33 28 24 22 16 12 1 352 337 336 329 333 325 327 336 336 316 287 212 177 178 205 180 190 185 192 191 197 199 195 189 200 198 194 193 191 190 190 190 192 186 185 182 180 179 179 176 177 178 177 178 181
32 30 30 25 22 23 9 360 35 86 85 80 80 71 58 45 39 35 33 26 30 29 29 28 25 18 15 7 7 359 350 343 343 348 337 342 335 334 332 315 292 199 182 184 196 219 185 201 202 201 205 198 197 200 192 193 191 192 191 190 189 186 190 187 182 183 182 179 177 177 177 176 175 175
32 30 28 30 22 22 10 10 356 3 53 104 92 72 70 63 48 36 42 40 31 32 32 29 27 22 12 11 7 360 347 342 345 348 353 348 335 327 317 317 312 304 189 210 216 218 175 190 207 214 207 204 204 203 193 191 192 192 191 191 188 188 187 188 184 182 181 179 175 174 176 175 171 168
32 31 31 27 26 21 20 12 356 344 26 27 33 34 37 40 46 43 33 36 41 36 36 32 30 24 20 17 7 359 353 352 351 346 347 339 334 334 325 313 315 334 188 208 226 236 181 189 205 215 219 213 206 203 196 189 192 188 190 192 189 191 191 187 184 180 181 178 173 172 172 172 168 163
32 32 34 34 30 25 21 9 348 345 7 36 38 39 38 35 47 43 44 42 35 36 36 37 34 29 27 24 17 7 359 355 349 342 342 338 334 320 320 2 21 27 10 332 282 260 42 350 174 38 13 351 8 36 137 181 181 186 191 191 189 191 189 188 185 182 181 171 171 170 167 164 162 158
38 30 30 35 33 27 23 2 351 349 350 35 33 38 39 35 37 60 99 81 79 22 27 30 25 20 12 328 18 12 5 5 357 356 354 356 360 1 11 16 27 29 10 16 4 26 38 18 59 49 28 28 9 359 15 49 189 194 192 187 188 191 190 187 175 172 164 157 156 159 161 155 155 153
49 38 25 29 30 28 21 358 355 354 342 39 30 34 37 37 37 31 49 150 154 199 234 251 276 289 292 246 42 27 17 7 4 7 11 11 359 10 9 4 3 32 13 18 360 15 56 54 71 59 38 42 25 3 355 12 57 161 201 199 193 189 188 179 171 163 161 155 153 152 148 146 141 132
60 51 39 23 25 23 16 359 359 358 352 34 28 30 30 33 37 34 24 25 44 157 163 54 286 21 12 30 48 47 27 25 19 23 21 6 2 10 8 4 340 354 31 14 354 350 69 120 120 105 121 64 37 12 349 9 46 70 102 136 212 207 183 172 164 160 155 156 154 141 132 129 127 131
55 58 50 33 19 14 5 3 2 4 359 33 25 30 32 32 26 33 25 20 27 28 29 25 26 25 25 25 20 28 31 32 29 26 21 15 15 10 6 1 353 356 16 2 348 345 47 302 23 28 79 59 53 35 3 14 41 44 69 80 83 87 142 157 149 139 134 130 131 131 131 131 125 117
58 53 52 39 16 1 9 8 8 7 4 15 32 26 32 27 4 5 36 24 20 31 31 31 28 27 27 23 21 22 24 24 28 29 24 23 20 17 12 7 6 6 345 342 338 335 350 311 10 8 349 133 73 31 8 23 39 51 42 74 85 92 86 85 114 119 130 134 134 136 139 135 128 118
55 55 49 45 10 356 5 12 10 7 8 6 32 21 21 353 318 311 28 23 15 31 29 32 30 28 26 26 22 25 27 25 25 27 30 27 27 22 16 11 11 6 353 347 338 339 348 0 31 38 44 48 111 102 44 44 43 50 45 53 75 92 98 95 90 81 92 99 107 114 119 126 128 127
62 57 52 40 359 349 2 9 13 10 7 15 29 1 342 334 338 7 31 25 24 30 32 33 31 28 27 23 24 22 24 26 29 30 27 29 28 29 26 20 15 11 5 355 354 356 355 33 15 81 71 65 86 93 96 58 43 46 62 45 53 66 90 100 89 88 91 93 96 101 96 92 96 113
63 61 53 38 355 350 355 0 13 18 4 26 6 346 345 341 353 19 33 31 30 29 33 35 32 29 26 24 23 24 26 25 30 30 31 32 29 30 31 26 21 13 3 12 15 6 18 34 28 42 81 56 101 84 63 71 63 60 62 57 46 45 64 76 81 82 82 87 95 93 87 83 80 76
61 59 47 20 351 353 349 357 20 23 14 6 357 360 359 12 23 29 31 32 34 30 30 35 33 32 29 28 24 24 25 27 25 31 33 34 34 35 36 32 28 21 17 21 26 26 15 27 33 33 60 68 67 95 95 62 65 61 84 67 67 51 52 77 84 80 79 84 81 79 94 95 93 87
59 18 348 341 1 358 360 24 43 39 21 5 13 12 20 28 32 29 30 28 28 33 29 33 32 32 32 31 29 24 25 28 28 30 37 34 35 39 42 42 38 33 28 22 28 31 35 33 27 42 47 35 58 49 76 69 55 35 47 92 73 60 59 63 80 82 83 77 78 76 77 89 92 96
50 3 356 10 21 42 26 43 42 40 27 9 36 39 32 37 34 29 28 29 29 31 28 32 32 32 33 31 31 28 27 30 29 27 33 33 33 33 34 37 40 38 35 34 31 34 38 40 35 36 51 44 46 58 54 81 61 44 40 58 82 73 56 61 64 68 71 70 67 69 71 71 78 85
68 50 32 19 327 357 298 49 51 47 37 32 32 38 37 38 37 36 33 29 31 29 29 29 32 33 34 30 27 30 33 31 28 30 34 38 36 34 37 40 39 36 38 40 43 42 44 45 43 45 53 53 52 50 51 57 71 55 54 53 52 76 84 74 77 82 85 85 81 80 84 84 83 87
34 33 60 319 51 39 40 39 43 40 42 42 35 33 36 37 40 40 41 37 33 29 30 30 26 31 35 33 26 27 31 32 26 27 37 38 40 39 38 42 39 37 40 41 46 48 51 51 52 50 53 51 56 48 54 60 64 67 70 67 74 76 74 83 84 83 81 87 85 73 75 87 101 107
37 40 43 40 36 43 38 39 34 36 35 38 43 36 32 34 34 35 33 36 32 25 25 29 25 26 30 34 33 25 29 31 30 23 34 40 42 43 47 48 44 40 42 48 47 46 45 53 58 59 57 52 49 54 58 62 63 66 72 74 77 82 86 86 90 88 89 87 85 84 74 66 59 85
41 40 44 38 39 35 38 34 35 32 33 31 33 40 33 35 33 30 32 35 31 26 24 23 26 24 26 28 30 31 29 31 32 30 22 36 39 44 46 50 52 53 54 51 45 43 38 45 59 64 64 64 61 48 43 60 67 61 61 64 68 69 66 66 70 82 85 90 94 91 77 68 53 70
51 46 44 41 42 41 39 32 31 32 33 33 33 32 33 33 32 30 31 29 32 27 28 24 23 22 24 30 26 28 28 29 34 35 35 34 36 42 45 49 51 52 54 59 62 54 45 35 39 51 58 54 61 56 42 34 61 66 66 66 66 71 68 67 76 75 76 81 82 88 86 79 76 73
46 51 50 50 43 37 41 35 32 29 31 25 30 33 31 31 30 31 32 22 30 29 26 27 21 23 21 27 28 26 28 27 34 35 37 40 40 41 46 47 48 51 51 57 62 63 62 57 46 39 48 40 47 55 37 30 33 36 70 75 69 76 76 78 79 82 92 86 84 97 99 103 92 91
47 48 46 46 46 40 40 37 29 30 28 29 25 25 25 29 29 26 27 28 29 28 24 26 24 18 20 20 29 28 26 30 35 30 36 42 40 41 43 46 46 47 50 51 55 64 66 68 65 62 58 61 64 62 57 42 45 37 39 70 65 62 77 83 78 75 81 97 90 80 102 111 122 121
51 41 46 42 41 46 36 34 33 29 30 28 27 25 23 25 24 24 15 23 25 26 26 26 24 19 21 17 25 29 26 26 34 34 32 34 43 41 42 45 43 42 42 42 40 42 42 51 57 60 62 65 74 74 81 79 73 45 25 39 83 84 89 103 91 88 88 97 105 95 94 116 117 115
44 44 38 44 38 38 37 36 31 31 29 27 26 26 26 21 24 20 20 15 14 21 29 25 20 18 24 17 21 28 30 26 25 32 35 33 26 31 39 41 46 45 41 40 40 43 41 36 44 49 52 60 62 70 79 90 79 76 49 32 34 76 86 85 95 97 106 109 115 120 94 71 65 78
52 46 37 39 41 35 38 35 35 32 31 30 30 18 29 25 23 22 20 12 7 3 26 27 12 11 24 19 17 25 28 35 29 27 30 38 33 22 26 33 32 45 49 42 42 48 48 43 32 33 47 56 65 75 85 92 104 108 100 63 37 23 28 77 99 102 112 126 133 130 125 132 129 157
48 50 49 37 44 41 37 37 35 33 31 29 38 26 21 33 26 13 18 7 2 354 16 21 16 17 22 20 23 25 26 26 32 27 20 31 46 37 13 17 45 32 45 47 47 54 58 54 51 293 311 89 130 155 134 113 96 101 92 85 62 51 44 20 42 112 117 140 148 143 147 152 154 172
55 58 52 42 40 42 41 38 35 34 31 31 25 23 29 25 38 326 360 21 4 2 3 17 15 14 19 20 20 24 33 23 24 26 26 18 21 40 36 28 32 36 38 49 47 59 73 103 187 203 95 224 265 63 64 73 88 82 82 88 93 79 58 56 48 45 98 166 172 164 152 154 165 175
53 58 57 58 44 41 41 37 36 39 35 31 28 19 18 26 24 14 19 13 10 12 8 6 11 11 8 12 19 16 20 24 20 22 24 27 24 22 33 37 21 20 45 55 67 59 47 42 31 15 30 47 54 56 65 67 91 121 131 114 101 96 90 78 80 81 70 55 41 39 10 338 197 181
60 57 65 50 57 48 42 38 32 34 33 32 28 29 22 17 29 28 15 12 8 10 4 4 1 6 359 2 10 12 18 8 15 14 20 27 36 30 20 29 38 18 16 42 47 53 81 65 39 17 48 39 51 71 110 138 90 72 77 86 109 133 126 134 132 118 97 63 45 46 49 55 72 71
65 42 61 58 49 42 27 24 36 31 29 27 33 32 30 29 17 27 38 14 13 349 5 9 359 357 354 348 358 10 359 357 2 14 7 20 24 33 37 11 30 40 28 11 15 49 35 29 50 38 60 66 68 65 45 37 70 86 97 126 149 151 140 152 160 160 170 163 55 50 56 54 55 62